| time (UTC) | temp F | wind direction | speed MPH | gust MPH | rain 1hr in | rain 24hr in | rain mn in | humidity % | barometer mb |
| 20260505024559 | 71 | 198 | 5.0 | 12.0 | 0.00 | 0.00 | 0.00 | 56 | 1006.0 |
| 20260505023116 | 71 | 163 | 6.0 | 13.0 | 0.00 | 0.00 | 0.00 | 56 | 1005.7 |
| 20260505021557 | 72 | 225 | 6.0 | 11.0 | 0.00 | 0.00 | 0.00 | 55 | 1005.4 |
| 20260505020054 | 72 | 152 | 7.0 | 15.0 | 0.00 | 0.00 | 0.00 | 53 | 1005.1 |
| 20260505014601 | 73 | 177 | 6.0 | 9.0 | 0.00 | 0.00 | 0.00 | 52 | 1004.8 |
| 20260505013108 | 73 | 182 | 7.0 | 11.0 | 0.00 | 0.00 | 0.00 | 51 | 1004.6 |
| 20260505011554 | 74 | 197 | 7.0 | 16.0 | 0.00 | 0.00 | 0.00 | 50 | 1004.5 |
| 20260505010100 | 75 | 193 | 8.0 | 14.0 | 0.00 | 0.00 | 0.00 | 50 | 1004.3 |
| 20260505004556 | 75 | 189 | 8.0 | 17.0 | 0.00 | 0.00 | 0.00 | 50 | 1004.0 |
| 20260505003051 | 76 | 175 | 6.0 | 12.0 | 0.00 | 0.00 | 0.00 | 50 | 1004.2 |
| 20260505001556 | 77 | 184 | 9.0 | 15.0 | 0.00 | 0.00 | 0.00 | 48 | 1004.2 |
| 20260505000113 | 77 | 210 | 7.0 | 14.0 | 0.00 | 0.00 | 0.00 | 48 | 1004.2 |
| 20260504234552 | 78 | 210 | 9.0 | 17.0 | 0.00 | 0.00 | 0.00 | 47 | 1004.2 |
| 20260504233057 | 79 | 200 | 8.0 | 14.0 | 0.00 | 0.00 | 0.00 | 46 | 1004.2 |
| 20260504231554 | 79 | 203 | 10.0 | 18.0 | 0.00 | 0.00 | 0.00 | 45 | 1004.3 |
| 20260504230106 | 79 | 210 | 10.0 | 23.0 | 0.00 | 0.00 | 0.00 | 44 | 1004.5 |
| 20260504224552 | 79 | 201 | 11.0 | 21.0 | 0.00 | 0.00 | 0.00 | 44 | 1004.6 |
| 20260504223053 | 80 | 200 | 12.0 | 19.0 | 0.00 | 0.00 | 0.00 | 44 | 1004.5 |
| 20260504221601 | 80 | 209 | 12.0 | 23.0 | 0.00 | 0.00 | 0.00 | 44 | 1004.6 |
| 20260504220058 | 80 | 223 | 13.0 | 23.0 | 0.00 | 0.00 | 0.00 | 43 | 1004.6 |
| 20260504214548 | 80 | 217 | 15.0 | 25.0 | 0.00 | 0.00 | 0.00 | 43 | 1004.8 |
| 20260504213053 | 80 | 215 | 14.0 | 28.0 | 0.00 | 0.00 | 0.00 | 42 | 1004.8 |
| 20260504211553 | 81 | 212 | 11.0 | 31.0 | 0.00 | 0.00 | 0.00 | 41 | 1004.9 |
| 20260504210054 | 81 | 220 | 11.0 | 22.0 | 0.00 | 0.00 | 0.00 | 43 | 1005.0 |
| 20260504204555 | 80 | 239 | 12.0 | 25.0 | 0.00 | 0.00 | 0.00 | 42 | 1005.0 |
| 20260504203109 | 81 | 211 | 13.0 | 27.0 | 0.00 | 0.00 | 0.00 | 41 | 1005.3 |
| 20260504201559 | 81 | 176 | 13.0 | 22.0 | 0.00 | 0.00 | 0.00 | 43 | 1005.3 |
| 20260504200053 | 80 | 209 | 15.0 | 27.0 | 0.00 | 0.00 | 0.00 | 44 | 1005.5 |
| 20260504194552 | 81 | 217 | 13.0 | 24.0 | 0.00 | 0.00 | 0.00 | 44 | 1005.6 |
| 20260504193049 | 81 | 209 | 9.0 | 22.0 | 0.00 | 0.00 | 0.00 | 43 | 1005.9 |
| 20260504191605 | 80 | 206 | 10.0 | 22.0 | 0.00 | 0.00 | 0.00 | 44 | 1006.1 |
| 20260504190107 | 81 | 216 | 11.0 | 23.0 | 0.00 | 0.00 | 0.00 | 42 | 1006.2 |
| 20260504184550 | 80 | 211 | 12.0 | 19.0 | 0.00 | 0.00 | 0.00 | 44 | 1006.3 |
| 20260504183050 | 77 | 192 | 12.0 | 25.0 | 0.00 | 0.00 | 0.00 | 46 | 1006.3 |
| 20260504181558 | 78 | 209 | 12.0 | 22.0 | 0.00 | 0.00 | 0.00 | 44 | 1006.5 |
| 20260504180057 | 78 | 194 | 13.0 | 29.0 | 0.00 | 0.00 | 0.00 | 44 | 1006.4 |
| 20260504174557 | 78 | 217 | 15.0 | 24.0 | 0.00 | 0.00 | 0.00 | 44 | 1006.3 |
| 20260504173055 | 78 | 211 | 14.0 | 31.0 | 0.00 | 0.00 | 0.00 | 43 | 1006.2 |
| 20260504171551 | 78 | 211 | 14.0 | 25.0 | 0.00 | 0.00 | 0.00 | 43 | 1006.3 |
| 20260504081550 | 64 | 211 | 8.0 | 16.0 | 0.00 | 0.00 | 0.00 | 57 | 1008.8 |
| 20260504050104 | 65 | 207 | 5.0 | 13.0 | 0.00 | 0.00 | 0.00 | 55 | 1010.3 |
| 20260504044559 | 66 | 182 | 5.0 | 12.0 | 0.00 | 0.00 | 0.00 | 54 | 1010.4 |
| 20260504043054 | 66 | 142 | 5.0 | 12.0 | 0.00 | 0.00 | 0.00 | 53 | 1010.6 |
| 20260504041549 | 66 | 195 | 6.0 | 12.0 | 0.00 | 0.00 | 0.00 | 53 | 1010.6 |
| 20260504040054 | 66 | 88 | 8.0 | 15.0 | 0.00 | 0.00 | 0.00 | 52 | 1010.8 |
| 20260504034551 | 67 | 166 | 5.0 | 12.0 | 0.00 | 0.00 | 0.00 | 52 | 1010.9 |
| 20260504033052 | 67 | 188 | 6.0 | 14.0 | 0.00 | 0.00 | 0.00 | 51 | 1011.1 |
| 20260504031551 | 67 | 192 | 5.0 | 12.0 | 0.00 | 0.00 | 0.00 | 50 | 1011.1 |
| 20260504030054 | 68 | 148 | 5.0 | 11.0 | 0.00 | 0.00 | 0.00 | 48 | 1011.1 |